THORAD DELTA 1 DEB, 8594

Orbit data source: Space-Track

THORAD DELTA 1 DEB, 8594 is space debris in SSO originally from a launch on Fri, 15 Nov 1974 UTC launched from the Air Force Western Test Range (AFWTR). Debris objects in space refer to the collection of defunct objects orbiting the Earth. Examples of debris include non-operational satellites, rocket bodies, and fragments generated from explosions, collisions, or faulty payload assembly.

Loading next visibility...
Identifier
8594, 1974-089DH
Orbit
SSO
Country
Flag of USUS
Related business
Manufacturer
Unknown
Mission
Spacecraft
Bus & Motor
Unknown
Mass
Unknown
Launch date (UTC)
1974-11-15 (51 years ago)
Launch vehicle
Unknown
Launch site
Air Force Western Test Range (AFWTR)
Object type
Payload
Rocket body
Debris
Shape & HBR
Unknown shape, 0.1 m
Radar Cross Section
Small (<0.1 m²)

Expand to show TLE details & history
Last TLE update: 9 hours ago

TLE from 9 hours ago
0 THORAD DELTA 1 DEB
1 08594U 74089DH  26072.84359573 -.00000012  00000-0  16744-3 0  9994
2 08594 101.7549  41.8402 0130878 260.2773 127.3993 12.73187617381412
Epoch: 2026-03-13T20:14Z
TLE epoch observation values (Epoch: 2026-03-13T20:14:46.671Z)
Latitude
28.23833°
Longitude
-79.71243°
Altitude
1,434.613 km
Speed
7.118 km/s
True Right ascension
02h 21m 49s
True Declination
28° 06' 27"
Sunlit
Object was in daylight at epoch
Visualization orbit readout
Latitude
Unknown
Longitude
Unknown
Altitude
Unknown
Speed
Unknown
Apparent Right ascension
Unknown
Apparent Declination
Unknown
Sunlit
N/A
Visualization observer readout
Local Sidereal Time
09:21:20
Azimuth
Unknown
Elevation
Unknown
Doppler factor
Unknown
Orbital elements
Apogee altitude
1,467.859 km
Perigee altitude
1,265.138 km
Semi-major axis
7,744.635 km
Eccentricity
0.01309
Inclination
101.7549°
RAAN
41.8402°
Arg. of periapsis
260.2773°
True anomaly
128.57893°
Mean anomaly
127.3993°
Eccentric anomaly
127.99029°
Mean motion
3.1845 °/min
Orbital period
113.05 mins
BSTAR
0.00016744
Loading maneuver chart data...
Computing Atmospheric mass density...
Loading historical data...
Loading historical data...
Loading historical data...
Loading historical data...
Loading historical data...
Loading historical data...
Loading historical data...

Documentation

Showing up to 5 results
|